CW9648 Weather Reports


Display with metric or nautical units.
time (UTC)temp
F
wind
direction
speed
MPH
gust
MPH
rain 1hr
in
rain 24hr
in
rain mn
in
humidity
%
barometer
mb
20260905230504 76 163 0.0 2.0 0.14 0.75 0.75 40 1014.1
20260905230025 76 147 1.0 6.0 0.14 0.74 0.74 40 1014.2
20260905225525 77 158 2.0 6.0 0.14 0.73 0.73 40 1014.3
20260905225004 77 171 1.0 4.0 0.14 0.71 0.71 40 1014.2
20260905224504 77 153 1.0 3.0 0.17 0.69 0.69 40 1014.4
20260905224004 77 154 0.0 3.0 0.22 0.67 0.67 40 1014.5
20260905223504 77 162 0.0 2.0 0.28 0.66 0.66 40 1014.4
20260905223025 77 162 0.0 2.0 0.38 0.65 0.65 40 1014.5
20260905222504 77 166 1.0 2.0 0.51 0.64 0.64 40 1014.3
20260905222004 77 167 1.0 3.0 0.55 0.63 0.63 40 1014.2
20260905221504 77 166 0.0 3.0 0.54 0.62 0.62 40 1014.1
20260905221004 76 175 0.0 1.0 0.53 0.61 0.61 40 1014.1
20260905220504 77 175 0.0 1.0 0.53 0.61 0.61 40 1014.1
20260905220004 76 176 0.0 4.0 0.52 0.60 0.60 40 1014.3
20260905215525 77 173 1.0 4.0 0.51 0.59 0.59 41 1014.6
20260905215004 77 175 1.0 4.0 0.49 0.57 0.57 41 1014.7
20260905214504 77 131 1.0 3.0 0.44 0.52 0.52 41 1014.8
20260905214003 77 67 1.0 3.0 0.37 0.45 0.45 42 1014.9
20260905213504 78 91 2.0 4.0 0.30 0.38 0.38 45 1014.9
20260905213004 79 110 1.0 4.0 0.19 0.27 0.27 47 1014.5
20260905212503 80 112 0.0 2.0 0.05 0.13 0.13 54 1014.4
20260905212004 81 0 0.0 0.0 0.00 0.08 0.08 62 1014.4
20260905211504 81 360 0.0 2.0 0.00 0.08 0.08 66 1014.2
20260905211004 81 357 2.0 8.0 0.00 0.08 0.08 68 1014.0
20260905210504 81 349 3.0 8.0 0.00 0.08 0.08 69 1014.0
20260905210004 82 347 3.0 6.0 0.00 0.08 0.08 70 1014.0
20260905205525 82 342 4.0 10.0 0.00 0.08 0.08 70 1013.9
20260905205003 83 338 3.0 10.0 0.00 0.08 0.08 72 1013.9
20260905204503 85 324 1.0 8.0 0.00 0.08 0.08 70 1013.7
20260905204004 85 275 1.0 3.0 0.00 0.08 0.08 70 1013.7
20260905203525 85 223 1.0 5.0 0.00 0.08 0.08 70 1013.7
20260905203003 85 210 1.0 5.0 0.00 0.08 0.08 70 1013.6
20260905202503 85 210 1.0 4.0 0.00 0.08 0.08 65 1013.6
20260905202025 84 196 1.0 3.0 0.00 0.08 0.08 58 1013.7
20260905201504 83 351 1.0 4.0 0.00 0.08 0.08 52 1013.9
20260905201003 82 360 2.0 4.0 0.00 0.08 0.08 57 1014.1
20260905200503 82 360 1.0 3.0 0.00 0.08 0.08 55 1014.4
20260905200004 82 360 0.0 2.0 0.00 0.08 0.08 53 1014.6
20260905195503 82 360 1.0 2.0 0.00 0.08 0.08 52 1014.6
20260905195004 82 360 1.0 2.0 0.00 0.08 0.08 55 1014.4
20260905194524 82 360 1.0 2.0 0.00 0.08 0.08 55 1014.3
20260905194003 82 360 0.0 2.0 0.00 0.08 0.08 51 1014.0
20260905193503 82 360 1.0 4.0 0.00 0.08 0.08 56 1013.9
20260905193025 82 2 1.0 4.0 0.00 0.08 0.08 55 1013.9
20260905192503 82 5 0.0 3.0 0.00 0.08 0.08 42 1013.9
20260905192003 82 1 0.0 2.0 0.01 0.08 0.08 41 1013.9
20260905191504 81 0 0.0 0.0 0.03 0.08 0.08 41 1014.0
20260905191003 81 360 0.0 1.0 0.06 0.08 0.08 40 1014.1
20260905190503 81 357 0.0 1.0 0.08 0.08 0.08 40 1014.5
20260905190004 80 306 0.0 1.0 0.08 0.08 0.08 39 1014.4
20260905185504 80 238 1.0 2.0 0.08 0.08 0.08 40 1014.4
20260905185003 79 236 1.0 3.0 0.08 0.08 0.08 41 1014.3
20260905184504 79 237 0.0 3.0 0.08 0.08 0.08 41 1014.3
20260905184003 79 0 0.0 0.0 0.08 0.08 0.08 42 1014.5
20260905183504 79 268 0.0 2.0 0.08 0.08 0.08 42 1014.6
20260905183003 79 262 1.0 2.0 0.08 0.08 0.08 43 1014.7
20260905182503 79 209 1.0 5.0 0.08 0.08 0.08 49 1014.6
20260905182003 80 165 1.0 5.0 0.07 0.07 0.07 52 1014.7
20260905181503 81 138 1.0 3.0 0.05 0.05 0.05 61 1014.9
20260905181004 82 36 2.0 3.0 0.02 0.02 0.02 71 1014.9
20260905180503 82 54 2.0 3.0 0.00 0.00 0.00 75 1015.0
20260905180003 82 52 1.0 3.0 0.00 0.00 0.00 76 1014.7
20260905175503 82 335 1.0 3.0 0.00 0.00 0.00 75 1014.8
20260905175003 83 295 0.0 3.0 0.00 0.00 0.00 76 1014.8
20260905174524 83 234 1.0 6.0 0.00 0.00 0.00 75 1014.8
20260905174004 84 250 2.0 6.0 0.00 0.00 0.00 75 1014.9
20260905173503 86 274 2.0 5.0 0.00 0.00 0.00 74 1015.1
20260905173004 87 313 3.0 9.0 0.00 0.00 0.00 75 1015.1
20260905172503 88 319 3.0 9.0 0.00 0.00 0.00 73 1015.2
20260905172003 89 337 2.0 8.0 0.00 0.00 0.00 71 1015.2
20260905171503 90 340 4.0 11.0 0.00 0.00 0.00 70 1015.0
20260905171024 90 343 5.0 12.0 0.00 0.00 0.00 70 1015.1
20260905170503 91 15 3.0 12.0 0.00 0.00 0.00 72 1015.0
20260905170003 92 117 2.0 6.0 0.00 0.00 0.00 70 1015.0
20260905165504 92 115 2.0 6.0 0.00 0.00 0.00 70 1015.2
20260905165003 91 69 1.0 3.0 0.00 0.00 0.00 71 1015.1
20260905164503 90 344 2.0 4.0 0.00 0.00 0.00 73 1015.1
20260905164003 89 329 2.0 4.0 0.00 0.00 0.00 73 1015.3
20260905163503 89 281 1.0 3.0 0.00 0.00 0.00 73 1015.2
20260905163003 88 197 1.0 4.0 0.00 0.00 0.00 73 1015.3
20260905162503 88 167 0.0 4.0 0.00 0.00 0.00 73 1015.4
20260905162003 87 325 0.0 2.0 0.00 0.00 0.00 73 1015.6
20260905161503 87 147 1.0 3.0 0.00 0.00 0.00 74 1015.7
20260905161003 87 137 1.0 3.0 0.00 0.00 0.00 73 1015.8
20260905160504 87 68 1.0 2.0 0.00 0.00 0.00 73 1015.8
20260905160024 87 337 2.0 5.0 0.00 0.00 0.00 73 1015.9
20260905155525 86 349 2.0 5.0 0.00 0.00 0.00 73 1015.9
20260905155003 86 332 2.0 4.0 0.00 0.00 0.00 72 1015.9
20260905154503 85 326 2.0 5.0 0.00 0.00 0.00 72 1015.9
20260905154003 85 11 1.0 5.0 0.00 0.00 0.00 71 1016.0
20260905153503 85 359 2.0 5.0 0.00 0.00 0.00 69 1016.0
20260905153003 84 359 2.0 4.0 0.00 0.00 0.00 70 1015.8
20260905152524 84 358 2.0 4.0 0.00 0.00 0.00 69 1015.8
20260905152003 84 350 2.0 4.0 0.00 0.00 0.00 69 1015.8
20260905151503 83 340 2.0 4.0 0.00 0.00 0.00 69 1015.9
20260905151003 83 336 2.0 4.0 0.00 0.00 0.00 67 1015.9
20260905150503 83 339 2.0 5.0 0.00 0.00 0.00 66 1015.9
20260905150003 83 339 2.0 5.0 0.00 0.00 0.00 66 1015.9
20260905145503 82 344 2.0 5.0 0.00 0.00 0.00 65 1015.8
20260905145003 82 346 2.0 4.0 0.00 0.00 0.00 61 1015.8
20260905144503 82 354 1.0 5.0 0.00 0.00 0.00 60 1015.8
20260905144025 81 359 1.0 5.0 0.00 0.00 0.00 55 1015.8
20260905143503 81 348 1.0 4.0 0.00 0.00 0.00 54 1015.8
20260905143003 81 349 1.0 4.0 0.00 0.00 0.00 53 1015.8
20260905142524 81 352 0.0 2.0 0.00 0.00 0.00 51 1015.8
20260905142003 80 355 0.0 2.0 0.00 0.00 0.00 48 1015.9
20260905141524 80 346 0.0 2.0 0.00 0.00 0.00 45 1015.7
20260905141003 80 340 0.0 2.0 0.00 0.00 0.00 44 1015.8
20260905140503 80 0 0.0 0.0 0.00 0.00 0.00 42 1015.8
20260905140004 81 0 0.0 0.0 0.00 0.00 0.00 40 1015.8
20260905135503 80 0 0.0 0.0 0.00 0.00 0.00 40 1015.8
20260905135003 80 0 0.0 0.0 0.00 0.00 0.00 39 1015.7
20260905134524 80 0 0.0 0.0 0.00 0.00 0.00 39 1015.7
20260905134003 80 0 0.0 0.0 0.00 0.00 0.00 39 1015.7
20260905133503 79 0 0.0 0.0 0.00 0.00 0.00 39 1015.6
20260905133003 79 0 0.0 0.0 0.00 0.00 0.00 39 1015.6
20260905132504 79 0 0.0 0.0 0.00 0.00 0.00 40 1015.6
20260905132003 79 0 0.0 0.0 0.00 0.00 0.00 40 1015.5
20260905131503 79 0 0.0 0.0 0.00 0.00 0.00 40 1015.5
20260905131003 78 0 0.0 0.0 0.00 0.00 0.00 40 1015.5
20260905130503 78 0 0.0 0.0 0.00 0.00 0.00 40 1015.4
20260905130003 78 0 0.0 0.0 0.00 0.00 0.00 40 1015.4
20260905125524 78 0 0.0 0.0 0.00 0.00 0.00 40 1015.4
20260905125003 77 0 0.0 0.0 0.00 0.00 0.00 40 1015.4
20260905124504 77 0 0.0 0.0 0.00 0.00 0.00 40 1015.4
20260905124003 77 0 0.0 0.0 0.00 0.00 0.00 40 1015.3
20260905123503 77 0 0.0 0.0 0.00 0.00 0.00 40 1015.2
20260905123024 77 0 0.0 0.0 0.00 0.00 0.00 40 1015.2
20260905122503 77 0 0.0 0.0 0.00 0.00 0.00 40 1015.2
20260905122005 77 0 0.0 0.0 0.00 0.00 0.00 40 1015.2
20260905121503 77 0 0.0 0.0 0.00 0.00 0.00 40 1015.1
20260905121003 77 0 0.0 0.0 0.00 0.00 0.00 40 1015.1
20260905120503 77 0 0.0 0.0 0.00 0.00 0.00 40 1015.0
20260905120004 77 0 0.0 0.0 0.00 0.00 0.00 40 1015.1
20260905115503 77 0 0.0 0.0 0.00 0.00 0.00 40 1015.0
20260905115003 77 0 0.0 0.0 0.00 0.00 0.00 40 1015.0
20260905114503 77 0 0.0 0.0 0.00 0.00 0.00 40 1015.0
20260905114004 77 0 0.0 0.0 0.00 0.00 0.00 40 1014.9
20260905113503 77 0 0.0 0.0 0.00 0.00 0.00 40 1014.9
20260905113003 77 0 0.0 0.0 0.00 0.00 0.00 40 1014.9
20260905112503 77 0 0.0 0.0 0.00 0.00 0.00 40 1014.8
20260905112003 77 0 0.0 0.0 0.00 0.00 0.00 40 1014.7
20260905111503 77 0 0.0 0.0 0.00 0.00 0.00 40 1014.7
20260905111003 77 0 0.0 0.0 0.00 0.00 0.00 40 1014.6
20260905110503 77 0 0.0 0.0 0.00 0.00 0.00 40 1014.8
20260905110004 78 0 0.0 0.0 0.00 0.00 0.00 40 1014.7
20260905105503 78 0 0.0 0.0 0.00 0.00 0.00 40 1014.7
20260905105003 78 0 0.0 0.0 0.00 0.00 0.00 40 1014.7
20260905104503 78 0 0.0 0.0 0.00 0.00 0.00 40 1014.7
20260905104003 78 0 0.0 0.0 0.00 0.00 0.00 40 1014.7
20260905103503 78 0 0.0 0.0 0.00 0.00 0.00 40 1014.6
20260905103003 78 0 0.0 0.0 0.00 0.00 0.00 40 1014.6
20260905102503 78 0 0.0 0.0 0.00 0.00 0.00 40 1014.6
20260905102003 78 0 0.0 0.0 0.00 0.00 0.00 40 1014.5
20260905101503 78 0 0.0 0.0 0.00 0.00 0.00 40 1014.5
20260905101003 78 0 0.0 0.0 0.00 0.00 0.00 40 1014.5
20260905100503 78 0 0.0 0.0 0.00 0.00 0.00 40 1014.4
20260905100003 78 0 0.0 0.0 0.00 0.00 0.00 40 1014.4
20260905095503 78 0 0.0 0.0 0.00 0.00 0.00 40 1014.3
20260905095003 78 0 0.0 0.0 0.00 0.00 0.00 40 1014.3
20260905094504 78 0 0.0 0.0 0.00 0.00 0.00 40 1014.2
20260905094024 78 0 0.0 0.0 0.00 0.00 0.00 40 1014.1
20260905093504 78 0 0.0 0.0 0.00 0.00 0.00 40 1014.2
20260905093024 78 0 0.0 0.0 0.00 0.00 0.00 40 1014.3
20260905092503 78 0 0.0 0.0 0.00 0.00 0.00 40 1014.4
20260905092003 78 0 0.0 0.0 0.00 0.00 0.00 40 1014.3
20260905091503 78 0 0.0 0.0 0.00 0.00 0.00 40 1014.2
20260905091004 78 0 0.0 0.0 0.00 0.00 0.00 40 1014.2
20260905090524 78 0 0.0 0.0 0.00 0.00 0.00 40 1014.2
20260905090003 78 0 0.0 0.0 0.00 0.00 0.00 40 1014.0
20260905085503 78 0 0.0 0.0 0.00 0.00 0.00 40 1014.0
20260905085003 78 0 0.0 0.0 0.00 0.00 0.00 40 1014.1
20260905084503 78 0 0.0 0.0 0.00 0.00 0.00 40 1014.1
20260905084005 78 0 0.0 0.0 0.00 0.00 0.00 40 1014.1
20260905083524 78 0 0.0 0.0 0.00 0.00 0.00 40 1014.1
20260905083003 78 0 0.0 0.0 0.00 0.00 0.00 40 1014.1
20260905082503 78 0 0.0 0.0 0.00 0.00 0.00 40 1014.2
20260905082005 78 0 0.0 0.0 0.00 0.00 0.00 40 1014.2
20260905081524 78 0 0.0 0.0 0.00 0.00 0.00 40 1014.3
20260905081003 78 0 0.0 0.0 0.00 0.00 0.00 40 1014.3
20260905080503 78 0 0.0 0.0 0.00 0.00 0.00 40 1014.4
20260905080003 78 0 0.0 0.0 0.00 0.00 0.00 40 1014.4
20260905075503 78 0 0.0 0.0 0.00 0.00 0.00 40 1014.3
20260905075025 78 0 0.0 0.0 0.00 0.00 0.00 40 1014.3
20260905074504 78 0 0.0 0.0 0.00 0.00 0.00 40 1014.4
20260905074025 78 0 0.0 0.0 0.00 0.00 0.00 40 1014.6
20260905073504 78 0 0.0 0.0 0.00 0.00 0.00 40 1014.5
20260905073004 78 0 0.0 0.0 0.00 0.00 0.00 40 1014.5
20260905072525 78 0 0.0 0.0 0.00 0.00 0.00 40 1014.5
20260905072004 78 0 0.0 0.0 0.00 0.00 0.00 40 1014.5
20260905071504 78 0 0.0 0.0 0.00 0.00 0.00 40 1014.5
20260905071004 78 0 0.0 0.0 0.00 0.00 0.00 40 1014.5
20260905070504 78 0 0.0 0.0 0.00 0.00 0.00 40 1014.5
20260905070004 78 0 0.0 0.0 0.00 0.00 0.00 40 1014.6
20260905065504 78 0 0.0 0.0 0.00 0.00 0.00 40 1014.6
20260905065004 78 0 0.0 0.0 0.00 0.00 0.00 40 1014.5
20260905064504 78 0 0.0 0.0 0.00 0.00 0.00 40 1014.5
20260905064025 78 0 0.0 0.0 0.00 0.00 0.00 40 1014.6
20260905063504 78 0 0.0 0.0 0.00 0.00 0.00 40 1014.5
20260905063004 78 0 0.0 0.0 0.00 0.00 0.00 40 1014.5
20260905062525 78 0 0.0 0.0 0.00 0.00 0.00 40 1014.6
20260905062004 78 0 0.0 0.0 0.00 0.00 0.00 40 1014.5
20260905061525 78 0 0.0 0.0 0.00 0.00 0.00 40 1014.4
20260905061004 78 0 0.0 0.0 0.00 0.00 0.00 40 1014.4
20260905060504 78 0 0.0 0.0 0.00 0.00 0.00 40 1014.4
20260905060004 78 0 0.0 0.0 0.00 0.00 0.00 40 1014.5
20260905055504 78 0 0.0 0.0 0.00 0.00 0.00 40 1014.5
20260905055004 78 0 0.0 0.0 0.00 0.00 0.00 40 1014.3
20260905054504 78 0 0.0 0.0 0.00 0.00 0.00 40 1014.2
20260905054004 78 0 0.0 0.0 0.00 0.00 0.00 40 1014.3
20260905053504 78 0 0.0 0.0 0.00 0.00 0.00 40 1014.3
20260905053004 78 0 0.0 0.0 0.00 0.00 0.00 40 1014.3
20260905052504 78 0 0.0 0.0 0.00 0.00 0.00 40 1014.3
20260905052025 78 0 0.0 0.0 0.00 0.00 0.00 40 1014.3
20260905051504 78 0 0.0 0.0 0.00 0.00 0.00 41 1014.3
20260905051004 78 0 0.0 0.0 0.00 0.00 0.00 41 1014.3
20260905050504 78 0 0.0 0.0 0.00 0.00 0.00 41 1014.6
20260905050004 78 0 0.0 0.0 0.00 0.00 0.00 41 1014.6
20260905045525 78 0 0.0 0.0 0.00 0.00 0.00 41 1014.6
20260905045025 78 0 0.0 0.0 0.00 0.00 0.00 41 1014.6
20260905044504 78 0 0.0 0.0 0.00 0.00 0.00 41 1014.6
20260905044004 78 0 0.0 0.0 0.00 0.00 0.00 42 1014.5
20260905043504 78 0 0.0 0.0 0.00 0.00 0.00 42 1014.5
20260905043004 78 0 0.0 0.0 0.00 0.00 0.00 42 1014.7
20260905042504 78 0 0.0 0.0 0.00 0.00 0.00 43 1014.7
20260905042025 78 0 0.0 0.0 0.00 0.00 0.00 43 1014.8
20260905041504 79 0 0.0 0.0 0.00 0.00 0.00 43 1014.8
20260905041004 79 0 0.0 0.0 0.00 0.00 0.00 43 1014.8
20260905040504 79 0 0.0 0.0 0.00 0.00 0.00 43 1015.0
20260905040004 79 0 0.0 0.0 0.00 0.00 0.00 44 1015.0
20260905035504 79 0 0.0 0.0 0.00 0.00 0.00 44 1014.9
20260905035004 79 0 0.0 0.0 0.00 0.00 0.00 45 1014.9
20260905034504 79 0 0.0 0.0 0.00 0.00 0.00 45 1014.9
20260905034004 79 0 0.0 0.0 0.00 0.00 0.00 46 1014.9
20260905033504 79 0 0.0 0.0 0.00 0.00 0.00 47 1014.9
20260905033004 79 0 0.0 0.0 0.00 0.00 0.00 47 1014.9
20260905032525 79 0 0.0 0.0 0.00 0.00 0.00 47 1014.9
20260905032004 80 0 0.0 0.0 0.00 0.00 0.00 49 1015.0
20260905031525 80 0 0.0 0.0 0.00 0.00 0.00 50 1014.9
20260905031004 80 0 0.0 0.0 0.00 0.00 0.00 50 1014.9
20260905030504 80 0 0.0 0.0 0.00 0.00 0.00 52 1014.9
20260905030004 80 0 0.0 0.0 0.00 0.00 0.00 53 1014.9
20260905025504 81 0 0.0 0.0 0.00 0.00 0.00 54 1014.8
20260905025004 81 0 0.0 0.0 0.00 0.00 0.00 56 1014.7
20260905024504 81 0 0.0 0.0 0.00 0.00 0.00 56 1014.8
20260905024004 81 0 0.0 0.0 0.00 0.00 0.00 57 1014.8
20260905023504 81 0 0.0 0.0 0.00 0.00 0.00 56 1014.7
20260905023004 81 0 0.0 0.0 0.00 0.00 0.00 56 1014.8
20260905022504 80 0 0.0 0.0 0.00 0.00 0.00 56 1014.7
20260905022004 80 0 0.0 0.0 0.00 0.00 0.00 54 1014.5
20260905021504 80 0 0.0 0.0 0.00 0.00 0.00 54 1014.5
20260905021006 80 0 0.0 0.0 0.00 0.00 0.00 55 1014.4
20260905020504 80 0 0.0 0.0 0.00 0.00 0.00 59 1014.3
20260905020004 80 0 0.0 0.0 0.00 0.00 0.00 58 1014.2
20260905015504 80 0 0.0 0.0 0.00 0.00 0.00 59 1014.1
20260905015004 81 0 0.0 0.0 0.00 0.00 0.00 61 1013.9
20260905014504 81 0 0.0 0.0 0.00 0.00 0.00 63 1013.7
20260905014004 82 0 0.0 0.0 0.00 0.00 0.00 65 1013.6
20260905013504 82 0 0.0 0.0 0.00 0.00 0.00 65 1013.5
20260905013004 82 0 0.0 0.0 0.00 0.00 0.00 67 1013.4
20260905012525 82 0 0.0 0.0 0.00 0.00 0.00 65 1013.5
20260905012004 82 0 0.0 0.0 0.00 0.00 0.00 64 1013.4
20260905011504 83 0 0.0 0.0 0.00 0.00 0.00 64 1013.4
20260905011004 83 0 0.0 0.0 0.00 0.00 0.00 68 1013.4
20260905010525 83 0 0.0 0.0 0.00 0.00 0.00 70 1013.4
20260905010004 83 0 0.0 0.0 0.00 0.00 0.00 69 1013.5
20260905005504 84 0 0.0 0.0 0.00 0.00 0.00 72 1013.5
20260905005004 84 0 0.0 0.0 0.00 0.00 0.00 72 1013.5
20260905004504 84 0 0.0 0.0 0.00 0.00 0.00 73 1013.5
20260905004004 84 0 0.0 0.0 0.00 0.00 0.00 73 1013.5
20260905003504 85 0 0.0 0.0 0.00 0.00 0.00 73 1013.5
20260905003004 85 0 0.0 0.0 0.00 0.00 0.00 74 1013.5
20260905002504 86 0 0.0 0.0 0.00 0.00 0.00 74 1013.4
20260905002004 86 0 0.0 0.0 0.00 0.00 0.00 75 1013.4
20260905001504 87 0 0.0 0.0 0.00 0.00 0.00 75 1013.4
20260905001004 88 0 0.0 0.0 0.00 0.00 0.00 75 1013.4
20260905000525 88 0 0.0 0.0 0.00 0.00 0.00 76 1013.4
20260905000004 89 0 0.0 0.0 0.00 0.00 0.00 77 1013.4
20260904235504 89 0 0.0 0.0 0.00 0.00 0.00 75 1013.3
20260904235004 90 0 0.0 0.0 0.00 0.00 0.00 76 1013.3
20260904234504 90 0 0.0 0.0 0.00 0.00 0.00 74 1013.4
20260904234004 90 0 0.0 0.0 0.00 0.00 0.00 74 1013.3
20260904233504 91 0 0.0 0.0 0.00 0.00 0.00 72 1013.3
20260904233004 91 0 0.0 0.0 0.00 0.00 0.00 72 1013.3
20260904232504 92 219 0.0 1.0 0.00 0.00 0.00 72 1013.2
20260904232004 92 215 0.0 1.0 0.00 0.00 0.00 68 1013.2
20260904231504 93 147 0.0 2.0 0.00 0.00 0.00 66 1013.2
20260904231004 94 160 0.0 2.0 0.00 0.00 0.00 61 1013.1